Location: Casco Volunteer Fire Department
(44.5576°N, 87.6146°W)
Time: 05:15:07
(UTC+00:00)

Meteor 1-12 Rocket - Pass Details

Date: 22 January 2026
Orbit: 853 x 925 km, 81.2° (Epoch: 7 February)

Event Time Altitude Azimuth Distance (km) Brightness Sun altitude
Rises 12:12:39 0° 184° (S) 3,490 7.6 -11.8°
Reaches altitude 10° 12:15:07 10° 183° (S) 2,544 6.9 -11.4°
Maximum altitude 12:20:53 79° 98° (E) 896 4.5 -10.4°
Drops below altitude 10° 12:26:36 10° 13° (NNE) 2,516 6.6 -9.4°
Sets 12:29:01 0° 12° (NNE) 3,450 7.3 -9.0°
